SCP
0 0 0 0 0 0 0 0 0 0 0 0 0 0 0 0 0 0 0 0 0 0 0 0 0 0 0 0 0 0 0 0 0 0 0 0 0 0
1 0 0 0 0 0 0 0 0 0 0 0 0 0 0 0 0 0 0 0 0 0 0 0 0 0 0 0 0 0 0 0 0 0 0 0 0 0
0 0 0 0 0 0 0 0 0 0 0 0 0 0 1 0 0 0 0 0 0 0 0 0 0 0 0 0 0 0 0 0 0 0 0 0 0 0
0 0 0 0 0 0 0 0 0 0 0 0 0 0 0 0 0 0 0 0 0 0 0 0 0 0 0 0 0 0 0 0 0 0 0 0 0 0
0 0 0 0 0 0 0 0 0 0 0 0 0 0 0 0 0 0 0 0 0 0 0 0 0 0 0 0 0 0 0 0 0 0 0 0 0 0
0 0 0 0 0 0 0 0 0 0 0 0 0 0 0 0 0 0 0 0 0 0 0 0 0 0 0 0 0 0 0 0 0 0 0 0 0 0
0 0 0 0 0 0 0 0 0 0 0 0 0 0 0 0 0 0 0 0 0 0 0 0 0 0 0 0 0 0 0 0 0 0 0 0 0 0
0 0 0 0 0 0 0 0 0 0 0 0 0 0 0 0 0 0 0 0 0 0 0 0 0 0 0 0 0 0 0 0 0 0 0 0 0 0
0 0 0 0 0 0 0 0 0 0 0 0 0 0 0 0 0 0 0 0 0 0 0 0 0 0 0 0 0 0 0 0 0 0 0 0 0 0
0 0 0 0 0 0 0 0 0 0 0 0 0 0 0 0 0 0 0 0 0 0 0 0 0 0 0 0 0 0 0 0 0 0 0 0 0 0
0 0 0 0 0 0 0 0 0 0 0 0 0 0 0 0 0 0 0 0 0 0 0 0 0 0 0 0 0 0 0 0 0 0 0 0 0 0
0 0 0 0 0 0 0 0 0 0 0 0 0 0 0 0 0 0 0 0 0 0 0 0 0 0 0 0 0 0 0 0 0 0 0 0 0 0
0 0 0 0 0 0 0 0 0 0 0 0 0 0 0 0 0 0 0 0 0 0 0 0 0 0 0 0 0 0 0 0 0 0 0 0 0 0
0 0 0 0 0 0 0 0 0 0 0 0 0 0 0 0 0 0 0 0 0 0 0 0 0 0 0 0 0 0 0 0 0 0 0 0 0 -0
0 0 0 0 0 0 0 0 0 0 0 0 0 0 0 0 0 0 0 0 0 0 0 0 0 0 0 0 0 0 0 0 0 0 0 0 -0 -0
0 0 0 0 0 0 0 0 0 0 0 0 0 0 0 0 0 0 0 0 0 0 0 0 0 0 0 0 0 0 0 0 0 0 -0 0 0 0
0 0 0 0 0 0 0 0 0 0 0 0 0 0 0 0 0 0 0 0 0 0 0 0 0 0 0 0 0 0 0 -0 -0 0 -0 0 0 0
0 0 0 0 0 0 0 0 0 0 0 0 0 0 0 0 0 0 0 0 0 0 0 0 0 0 0 0 0 0 -0 -0 -0 0 0 0 0 0
0 0 0 0 0 0 0 0 0 0 0 0 0 0 0 0 0 0 0 0 0 0 0 0 0 0 0 0 0 -0 -0 -0 -0 0 -0 0 0 0
0 0 0 0 0 0 0 0 0 0 0 0 0 0 0 0 0 0 0 0 -0 -0 0 0 0 0 -0 -0 -0 0 -0 -0 0 0 0 0 -0 -0
0 0 0 0 0 0 0 0 0 0 0 0 0 0 0 0 0 0 0 -0 -0 -0 0 0 0 0 0 0 -0 -0 -0 -0 0 0 0 0 0 0
0 0 0 0 0 0 0 0 0 0 0 0 0 0 0 0 0 0 0 -0 0 0 0 0 0 0 -0 0 -0 0 0 0 0 0 0 0 0 0
0 0 0 0 0 0 0 0 0 0 0 0 0 0 0 0 0 0 0 0 0 0 0 0 0 0 -0 -0 -0 0 0 0 0 0 0 0 0 0
Wind_Speed_500mb
43 39 40 39 40 38 35 37 45 48 44 43 38 36 26 38 41 43 46 54 56 66 59 44 44 43 45 43 48 53 54 55 54 54 57 61 64 67
45 42 41 42 42 39 35 41 48 47 51 44 46 43 42 38 37 41 45 48 59 56 51 50 45 47 53 51 48 49 54 55 55 56 59 64 69 71
41 42 42 41 42 41 36 51 54 49 48 49 45 45 43 41 41 46 56 64 58 57 56 48 54 53 43 47 52 57 58 53 54 55 59 60 60 63
41 39 42 46 44 40 47 58 46 42 56 62 61 63 60 50 51 55 55 56 60 63 56 40 33 41 47 52 61 59 53 52 54 50 50 51 51 56
38 43 49 40 38 46 52 51 49 45 39 42 44 40 45 50 58 55 62 63 57 48 40 36 33 45 58 53 55 57 56 57 54 53 54 55 59 60
42 39 39 45 48 49 47 45 46 50 50 50 49 48 49 51 49 52 58 61 59 49 36 47 52 54 58 59 56 62 62 53 53 57 64 69 66 60
36 35 37 41 45 50 58 53 51 51 48 47 51 49 48 48 48 46 51 48 45 54 59 60 55 55 67 64 47 39 51 55 61 70 75 77 76 67
42 42 46 51 50 55 56 57 54 53 58 63 68 71 72 67 63 61 62 63 61 61 60 61 66 72 55 42 41 48 55 58 65 70 76 73 67 63
38 37 35 34 38 49 53 52 52 57 61 66 72 76 68 59 59 69 79 68 65 69 72 83 78 67 49 43 53 44 50 65 71 66 61 67 73 76
41 46 50 56 56 57 57 59 55 46 59 70 63 65 56 62 68 83 68 56 71 79 77 77 71 58 53 46 52 56 60 63 54 60 70 63 62 63
40 44 46 48 46 49 53 56 53 55 55 47 49 49 46 46 56 61 68 74 78 70 57 58 57 54 47 41 42 45 59 65 56 56 51 52 59 70
40 39 45 46 45 55 57 52 48 43 43 47 45 45 42 41 45 49 49 51 53 61 54 39 41 43 39 50 46 49 68 61 44 47 43 50 51 46
49 40 37 50 45 52 42 35 38 45 48 47 44 41 36 38 32 31 40 44 42 47 50 48 55 45 47 53 53 54 50 61 59 44 42 43 41 41
41 37 42 49 47 37 39 31 37 39 45 40 39 36 36 38 38 52 58 43 46 49 46 47 54 50 55 55 57 55 53 61 57 40 36 34 32 31
37 45 49 42 33 38 35 37 38 37 38 29 31 32 29 41 46 45 39 39 40 41 40 39 47 42 42 47 54 58 57 65 45 43 43 40 38 33
43 41 23 34 37 29 23 32 31 35 25 18 21 34 39 36 37 31 27 26 31 31 18 13 24 32 39 40 46 51 51 54 55 50 52 45 30 26
32 20 31 23 23 34 37 45 47 34 30 26 40 46 36 33 33 31 29 27 28 35 33 26 23 24 28 32 39 43 49 45 50 43 44 40 19 19
27 28 23 35 30 33 42 43 48 34 29 36 41 32 28 28 32 32 32 33 37 41 40 35 31 30 26 27 35 35 41 43 45 35 33 41 30 15
27 26 27 26 36 45 38 38 37 34 37 38 30 21 27 24 26 35 34 36 41 41 41 33 33 28 26 23 25 34 41 45 36 25 31 31 22 17
27 36 27 25 27 35 34 33 39 41 32 32 23 26 25 26 29 34 37 38 44 44 45 37 31 25 18 26 38 42 32 37 35 28 30 17 9 14
27 28 32 29 33 32 29 34 33 36 37 38 27 29 27 25 26 31 40 38 43 45 44 30 30 20 18 28 33 32 34 37 33 19 31 11 5 19
29 31 34 37 33 32 30 34 34 34 33 37 35 36 41 27 34 36 41 43 44 45 43 34 34 22 18 22 32 34 37 30 27 24 18 12 5 4
31 31 32 30 29 35 34 39 36 33 40 41 38 41 37 32 35 38 40 42 45 43 37 35 31 19 21 25 34 37 29 33 30 16 22 13 1 10
Wind_Direction_500mb
261 270 272 275 277 275 261 267 282 285 279 278 277 284 282 255 259 262 262 273 286 295 294 296 299 299 295 297 296 294 291 290 287 284 283 282 280 278
261 267 271 278 278 278 263 282 276 282 283 277 272 278 286 285 272 271 273 279 291 296 295 294 296 292 299 304 301 302 303 296 292 288 287 285 283 279
263 272 279 282 278 277 269 268 272 269 275 276 269 263 263 277 279 275 278 286 288 284 292 285 283 294 300 300 300 304 306 299 294 296 294 293 289 284
270 278 281 280 277 275 267 284 280 274 268 277 276 276 275 275 277 277 277 278 282 283 291 288 297 292 294 298 300 302 303 302 304 301 295 297 299 294
276 278 282 281 277 275 283 283 271 270 274 277 279 274 270 271 279 277 279 283 284 284 290 292 286 290 295 296 293 296 297 298 301 297 293 295 301 293
286 280 276 279 282 291 283 282 280 279 277 276 279 282 284 288 285 284 279 279 276 274 257 268 278 281 284 284 283 283 289 290 287 287 291 292 293 294
289 286 288 287 288 289 292 293 282 269 271 273 278 280 279 279 277 278 285 288 274 269 276 283 289 290 293 296 286 288 291 292 293 292 292 291 289 288
294 288 280 277 280 291 289 290 284 281 276 277 277 275 275 276 279 282 287 285 286 277 277 279 286 298 297 306 297 292 289 288 287 289 290 289 286 285
308 309 313 310 295 294 292 288 291 285 283 278 276 274 274 288 281 290 290 283 284 286 286 284 289 286 293 295 293 285 281 288 289 291 292 292 287 286
322 320 312 309 306 304 304 301 298 296 288 300 293 291 302 298 288 283 277 273 285 282 287 281 288 285 286 287 287 291 291 293 287 292 295 292 285 283
310 314 313 308 318 319 322 319 310 301 301 299 295 296 299 297 288 287 293 291 290 287 287 283 281 290 277 286 284 290 289 297 298 304 297 292 292 293
317 315 313 311 317 320 320 322 323 321 310 311 310 312 314 311 302 294 291 288 284 291 293 281 285 294 295 281 287 292 298 311 316 323 309 304 306 311
329 321 313 313 321 324 325 332 342 339 330 316 317 320 323 317 306 310 306 298 289 285 290 277 285 286 282 293 298 302 311 318 323 322 312 308 298 306
329 325 305 309 314 319 320 322 325 325 327 321 320 329 322 326 299 306 305 293 287 289 285 281 277 281 287 290 292 310 309 314 319 320 322 319 322 323
312 305 311 315 325 321 321 324 315 320 324 319 325 325 317 301 302 303 304 290 289 286 285 279 276 282 280 281 289 291 310 313 313 312 310 317 302 322
322 325 335 346 348 3 341 340 337 327 327 333 321 314 315 325 328 322 325 327 319 317 313 309 302 290 284 285 290 292 299 310 311 311 314 313 303 305
338 355 348 342 322 335 340 333 333 333 319 301 311 326 327 353 2 6 2 352 343 336 341 336 326 309 295 286 279 296 310 304 311 309 301 306 299 275
339 334 346 346 346 332 330 330 330 331 322 320 323 323 326 335 347 341 339 329 324 326 321 316 317 310 304 290 287 304 312 314 312 309 303 311 287 258
325 321 318 321 320 327 330 327 329 331 322 321 325 313 309 326 333 336 327 329 323 321 324 311 310 294 303 306 298 308 305 315 320 314 280 305 301 200
331 325 319 330 320 331 317 319 320 318 332 335 328 311 315 322 321 327 328 321 322 320 316 316 305 287 297 307 302 308 316 327 327 302 308 288 181 189
325 309 312 319 317 316 312 313 316 314 321 329 311 299 309 308 311 314 319 311 317 320 320 315 317 293 299 301 314 316 313 324 331 299 308 312 253 198
313 306 306 317 318 308 306 320 316 315 315 306 308 299 295 289 311 310 317 314 315 319 314 317 314 295 313 310 314 309 310 326 330 319 308 299 241 177
300 301 310 302 313 307 304 310 311 317 313 316 312 307 313 309 308 313 313 308 315 312 310 315 318 303 316 325 316 323 324 327 317 295 261 315 313 132
Wind_Speed_850mb
43 39 40 39 40 38 35 37 45 48 44 43 38 36 26 38 41 43 46 54 56 66 59 44 44 43 45 43 48 53 54 55 54 54 57 61 64 67
45 42 41 42 42 39 35 41 48 47 51 44 46 43 42 38 37 41 45 48 59 56 51 50 45 47 53 51 48 49 54 55 55 56 59 64 69 71
41 42 42 41 42 41 36 51 54 49 48 49 45 45 43 41 41 46 56 64 58 57 56 48 54 53 43 47 52 57 58 53 54 55 59 60 60 63
41 39 42 46 44 40 47 58 46 42 56 62 61 63 60 50 51 55 55 56 60 63 56 40 33 41 47 52 61 59 53 52 54 50 50 51 51 56
38 43 49 40 38 46 52 51 49 45 39 42 44 40 45 50 58 55 62 63 57 48 40 36 33 45 58 53 55 57 56 57 54 53 54 55 59 60
42 39 39 45 48 49 47 45 46 50 50 50 49 48 49 51 49 52 58 61 59 49 36 47 52 54 58 59 56 62 62 53 53 57 64 69 66 60
36 35 37 41 45 50 58 53 51 51 48 47 51 49 48 48 48 46 51 48 45 54 59 60 55 55 67 64 47 39 51 55 61 70 75 77 76 67
42 42 46 51 50 55 56 57 54 53 58 63 68 71 72 67 63 61 62 63 61 61 60 61 66 72 55 42 41 48 55 58 65 70 76 73 67 63
38 37 35 34 38 49 53 52 52 57 61 66 72 76 68 59 59 69 79 68 65 69 72 83 78 67 49 43 53 44 50 65 71 66 61 67 73 76
41 46 50 56 56 57 57 59 55 46 59 70 63 65 56 62 68 83 68 56 71 79 77 77 71 58 53 46 52 56 60 63 54 60 70 63 62 63
40 44 46 48 46 49 53 56 53 55 55 47 49 49 46 46 56 61 68 74 78 70 57 58 57 54 47 41 42 45 59 65 56 56 51 52 59 70
40 39 45 46 45 55 57 52 48 43 43 47 45 45 42 41 45 49 49 51 53 61 54 39 41 43 39 50 46 49 68 61 44 47 43 50 51 46
49 40 37 50 45 52 42 35 38 45 48 47 44 41 36 38 32 31 40 44 42 47 50 48 55 45 47 53 53 54 50 61 59 44 42 43 41 41
41 37 42 49 47 37 39 31 37 39 45 40 39 36 36 38 38 52 58 43 46 49 46 47 54 50 55 55 57 55 53 61 57 40 36 34 32 31
37 45 49 42 33 38 35 37 38 37 38 29 31 32 29 41 46 45 39 39 40 41 40 39 47 42 42 47 54 58 57 65 45 43 43 40 38 33
43 41 23 34 37 29 23 32 31 35 25 18 21 34 39 36 37 31 27 26 31 31 18 13 24 32 39 40 46 51 51 54 55 50 52 45 30 26
32 20 31 23 23 34 37 45 47 34 30 26 40 46 36 33 33 31 29 27 28 35 33 26 23 24 28 32 39 43 49 45 50 43 44 40 19 19
27 28 23 35 30 33 42 43 48 34 29 36 41 32 28 28 32 32 32 33 37 41 40 35 31 30 26 27 35 35 41 43 45 35 33 41 30 15
27 26 27 26 36 45 38 38 37 34 37 38 30 21 27 24 26 35 34 36 41 41 41 33 33 28 26 23 25 34 41 45 36 25 31 31 22 17
27 36 27 25 27 35 34 33 39 41 32 32 23 26 25 26 29 34 37 38 44 44 45 37 31 25 18 26 38 42 32 37 35 28 30 17 9 14
27 28 32 29 33 32 29 34 33 36 37 38 27 29 27 25 26 31 40 38 43 45 44 30 30 20 18 28 33 32 34 37 33 19 31 11 5 19
29 31 34 37 33 32 30 34 34 34 33 37 35 36 41 27 34 36 41 43 44 45 43 34 34 22 18 22 32 34 37 30 27 24 18 12 5 4
31 31 32 30 29 35 34 39 36 33 40 41 38 41 37 32 35 38 40 42 45 43 37 35 31 19 21 25 34 37 29 33 30 16 22 13 1 10
Wind_Direction_850mb
261 270 272 275 277 275 261 267 282 285 279 278 277 284 282 255 259 262 262 273 286 295 294 296 299 299 295 297 296 294 291 290 287 284 283 282 280 278
261 267 271 278 278 278 263 282 276 282 283 277 272 278 286 285 272 271 273 279 291 296 295 294 296 292 299 304 301 302 303 296 292 288 287 285 283 279
263 272 279 282 278 277 269 268 272 269 275 276 269 263 263 277 279 275 278 286 288 284 292 285 283 294 300 300 300 304 306 299 294 296 294 293 289 284
270 278 281 280 277 275 267 284 280 274 268 277 276 276 275 275 277 277 277 278 282 283 291 288 297 292 294 298 300 302 303 302 304 301 295 297 299 294
276 278 282 281 277 275 283 283 271 270 274 277 279 274 270 271 279 277 279 283 284 284 290 292 286 290 295 296 293 296 297 298 301 297 293 295 301 293
286 280 276 279 282 291 283 282 280 279 277 276 279 282 284 288 285 284 279 279 276 274 257 268 278 281 284 284 283 283 289 290 287 287 291 292 293 294
289 286 288 287 288 289 292 293 282 269 271 273 278 280 279 279 277 278 285 288 274 269 276 283 289 290 293 296 286 288 291 292 293 292 292 291 289 288
294 288 280 277 280 291 289 290 284 281 276 277 277 275 275 276 279 282 287 285 286 277 277 279 286 298 297 306 297 292 289 288 287 289 290 289 286 285
308 309 313 310 295 294 292 288 291 285 283 278 276 274 274 288 281 290 290 283 284 286 286 284 289 286 293 295 293 285 281 288 289 291 292 292 287 286
322 320 312 309 306 304 304 301 298 296 288 300 293 291 302 298 288 283 277 273 285 282 287 281 288 285 286 287 287 291 291 293 287 292 295 292 285 283
310 314 313 308 318 319 322 319 310 301 301 299 295 296 299 297 288 287 293 291 290 287 287 283 281 290 277 286 284 290 289 297 298 304 297 292 292 293
317 315 313 311 317 320 320 322 323 321 310 311 310 312 314 311 302 294 291 288 284 291 293 281 285 294 295 281 287 292 298 311 316 323 309 304 306 311
329 321 313 313 321 324 325 332 342 339 330 316 317 320 323 317 306 310 306 298 289 285 290 277 285 286 282 293 298 302 311 318 323 322 312 308 298 306
329 325 305 309 314 319 320 322 325 325 327 321 320 329 322 326 299 306 305 293 287 289 285 281 277 281 287 290 292 310 309 314 319 320 322 319 322 323
312 305 311 315 325 321 321 324 315 320 324 319 325 325 317 301 302 303 304 290 289 286 285 279 276 282 280 281 289 291 310 313 313 312 310 317 302 322
322 325 335 346 348 3 341 340 337 327 327 333 321 314 315 325 328 322 325 327 319 317 313 309 302 290 284 285 290 292 299 310 311 311 314 313 303 305
338 355 348 342 322 335 340 333 333 333 319 301 311 326 327 353 2 6 2 352 343 336 341 336 326 309 295 286 279 296 310 304 311 309 301 306 299 275
339 334 346 346 346 332 330 330 330 331 322 320 323 323 326 335 347 341 339 329 324 326 321 316 317 310 304 290 287 304 312 314 312 309 303 311 287 258
325 321 318 321 320 327 330 327 329 331 322 321 325 313 309 326 333 336 327 329 323 321 324 311 310 294 303 306 298 308 305 315 320 314 280 305 301 200
331 325 319 330 320 331 317 319 320 318 332 335 328 311 315 322 321 327 328 321 322 320 316 316 305 287 297 307 302 308 316 327 327 302 308 288 181 189
325 309 312 319 317 316 312 313 316 314 321 329 311 299 309 308 311 314 319 311 317 320 320 315 317 293 299 301 314 316 313 324 331 299 308 312 253 198
313 306 306 317 318 308 306 320 316 315 315 306 308 299 295 289 311 310 317 314 315 319 314 317 314 295 313 310 314 309 310 326 330 319 308 299 241 177
300 301 310 302 313 307 304 310 311 317 313 316 312 307 313 309 308 313 313 308 315 312 310 315 318 303 316 325 316 323 324 327 317 295 261 315 313 132